Time,TemperatureF,DewpointF,PressureIn,WindDirection,WindDirectionDegrees,WindSpeedMPH,WindSpeedGustMPH,Humidity,HourlyPrecipIn,Conditions,Clouds,dailyrainin,SoftwareType,DateUTC
2013-03-05 00:01:00,27.0,15.0,29.97,East,90,1.0,3.0,61,-99.99,,,-99.99,,2013-03-05 06:01:00,
2013-03-05 00:11:00,27.0,15.0,29.97,East,90,1.0,3.0,61,-99.99,,,-99.99,,2013-03-05 06:11:00,
2013-03-05 00:22:00,28.0,16.0,29.97,NE,45,0.0,1.0,61,-99.99,,,-99.99,,2013-03-05 06:22:00,
2013-03-05 00:31:00,28.0,16.0,29.97,NE,45,0.0,1.0,61,-99.99,,,-99.99,,2013-03-05 06:31:00,
2013-03-05 00:42:00,28.0,16.0,29.97,NE,45,0.0,1.0,61,-99.99,,,-99.99,,2013-03-05 06:42:00,
2013-03-05 00:52:00,27.0,15.0,29.96,East,90,0.0,1.0,60,-99.99,,,-99.99,,2013-03-05 06:52:00,
2013-03-05 01:01:00,27.0,15.0,29.97,East,90,0.0,3.0,61,-99.99,,,-99.99,,2013-03-05 07:01:00,
2013-03-05 01:11:00,27.0,15.0,29.97,East,90,0.0,3.0,61,-99.99,,,-99.99,,2013-03-05 07:11:00,
2013-03-05 01:22:00,28.0,16.0,29.96,NE,45,0.0,1.0,61,-99.99,,,-99.99,,2013-03-05 07:22:00,
2013-03-05 01:30:00,28.0,16.0,29.96,SE,135,1.0,2.0,61,-99.99,,,-99.99,,2013-03-05 07:30:00,
2013-03-05 01:31:00,28.0,16.0,29.96,NE,45,0.0,1.0,61,-99.99,,,-99.99,,2013-03-05 07:31:00,
2013-03-05 01:41:00,28.0,16.0,29.96,NE,45,0.0,1.0,61,-99.99,,,-99.99,,2013-03-05 07:41:00,
2013-03-05 01:52:00,28.0,16.0,29.96,SE,135,1.0,2.0,61,-99.99,,,-99.99,,2013-03-05 07:52:00,
2013-03-05 02:02:00,28.0,16.0,29.96,SE,135,1.0,2.0,61,-99.99,,,-99.99,,2013-03-05 08:02:00,
2013-03-05 02:11:00,28.0,16.0,29.96,SE,135,1.0,2.0,61,-99.99,,,-99.99,,2013-03-05 08:11:00,
2013-03-05 02:21:00,28.0,16.0,29.96,SE,135,1.0,2.0,61,-99.99,,,-99.99,,2013-03-05 08:21:00,
2013-03-05 02:50:00,26.0,14.0,29.93,ENE,74,1.0,2.0,60,-99.99,,,-99.99,,2013-03-05 08:50:00,
2013-03-05 02:52:00,27.0,15.0,29.95,East,90,2.0,2.0,59,-99.99,,,-99.99,,2013-03-05 08:52:00,
2013-03-05 03:01:00,26.0,14.0,29.93,NE,45,1.0,2.0,60,-99.99,,,-99.99,,2013-03-05 09:01:00,
2013-03-05 03:11:00,26.0,14.0,29.93,NE,45,1.0,2.0,60,-99.99,,,-99.99,,2013-03-05 09:11:00,
2013-03-05 03:21:00,26.0,14.0,29.93,ENE,74,1.0,2.0,60,-99.99,,,-99.99,,2013-03-05 09:21:00,
2013-03-05 03:31:00,26.0,14.0,29.93,ENE,74,1.0,2.0,60,-99.99,,,-99.99,,2013-03-05 09:31:00,
2013-03-05 03:42:00,26.0,14.0,29.93,ENE,74,1.0,2.0,60,-99.99,,,-99.99,,2013-03-05 09:42:00,
2013-03-05 04:22:00,26.0,14.0,29.90,ENE,60,2.0,3.0,61,-99.99,,,-99.99,,2013-03-05 10:22:00,
2013-03-05 04:32:00,25.0,13.0,29.89,NNE,31,2.0,3.0,61,-99.99,,,-99.99,,2013-03-05 10:32:00,
2013-03-05 04:42:00,25.0,13.0,29.89,NNE,31,2.0,3.0,61,-99.99,,,-99.99,,2013-03-05 10:42:00,
2013-03-05 04:52:00,25.0,14.0,29.90,NNW,337,0.0,3.0,62,-99.99,,,-99.99,,2013-03-05 10:52:00,
2013-03-05 05:01:00,25.0,14.0,29.90,NNW,337,0.0,3.0,62,-99.99,,,-99.99,,2013-03-05 11:01:00,
2013-03-05 05:11:00,25.0,14.0,29.90,NNW,337,0.0,3.0,62,-99.99,,,-99.99,,2013-03-05 11:11:00,
2013-03-05 05:22:00,25.0,14.0,29.88,NE,54,1.0,2.0,63,-99.99,,,-99.99,,2013-03-05 11:22:00,
2013-03-05 05:32:00,25.0,14.0,29.88,NE,54,1.0,2.0,63,-99.99,,,-99.99,,2013-03-05 11:32:00,
2013-03-05 05:42:00,25.0,14.0,29.88,NE,54,1.0,2.0,63,-99.99,,,-99.99,,2013-03-05 11:42:00,
2013-03-05 05:52:00,26.0,16.0,29.89,NE,40,1.0,2.0,64,-99.99,,,-99.99,,2013-03-05 11:52:00,
2013-03-05 06:02:00,26.0,16.0,29.88,NNE,29,2.0,2.0,65,-99.99,,,-99.99,,2013-03-05 12:02:00,
2013-03-05 06:12:00,26.0,16.0,29.88,NNE,29,2.0,2.0,65,-99.99,,,-99.99,,2013-03-05 12:12:00,
2013-03-05 06:22:00,26.0,16.0,29.88,North,11,1.0,2.0,65,-99.99,,,-99.99,,2013-03-05 12:22:00,
2013-03-05 06:32:00,26.0,16.0,29.88,NE,45,1.0,2.0,65,-99.99,,,-99.99,,2013-03-05 12:32:00,
2013-03-05 06:42:00,26.0,16.0,29.88,NE,45,1.0,2.0,65,-99.99,,,-99.99,,2013-03-05 12:42:00,
2013-03-05 06:50:00,26.0,16.0,29.88,SSE,147,0.0,2.0,65,-99.99,,,-99.99,,2013-03-05 12:50:00,
2013-03-05 06:52:00,26.0,16.0,29.88,East,90,2.0,2.0,65,-99.99,,,-99.99,,2013-03-05 12:52:00,
2013-03-05 07:02:00,26.0,16.0,29.88,East,90,2.0,2.0,65,-99.99,,,-99.99,,2013-03-05 13:02:00,
2013-03-05 07:11:00,26.0,16.0,29.88,East,90,2.0,2.0,65,-99.99,,,-99.99,,2013-03-05 13:11:00,
2013-03-05 07:21:00,26.0,16.0,29.88,SSE,147,0.0,2.0,65,-99.99,,,-99.99,,2013-03-05 13:21:00,
2013-03-05 07:32:00,26.0,16.0,29.88,SSE,147,0.0,2.0,65,-99.99,,,-99.99,,2013-03-05 13:32:00,
2013-03-05 07:42:00,26.0,16.0,29.88,SSE,147,0.0,2.0,65,-99.99,,,-99.99,,2013-03-05 13:42:00,
2013-03-05 08:22:00,27.0,15.0,29.91,North,5,1.0,2.0,61,-99.99,,,-99.99,,2013-03-05 14:22:00,
2013-03-05 08:32:00,27.0,15.0,29.91,North,5,1.0,2.0,61,-99.99,,,-99.99,,2013-03-05 14:32:00,
2013-03-05 08:42:00,27.0,15.0,29.91,North,5,1.0,2.0,61,-99.99,,,-99.99,,2013-03-05 14:42:00,
2013-03-05 08:52:00,28.0,16.0,29.92,NE,45,1.0,3.0,60,-99.99,,,-99.99,,2013-03-05 14:52:00,
2013-03-05 09:01:00,29.0,16.0,29.92,East,85,1.0,2.0,59,-99.99,,,-99.99,,2013-03-05 15:01:00,
2013-03-05 09:11:00,29.0,16.0,29.92,East,85,1.0,2.0,59,-99.99,,,-99.99,,2013-03-05 15:11:00,
2013-03-05 09:21:00,29.0,16.0,29.93,NE,45,0.0,2.0,58,-99.99,,,-99.99,,2013-03-05 15:21:00,
2013-03-05 09:32:00,30.0,17.0,29.93,NE,45,1.0,2.0,58,-99.99,,,-99.99,,2013-03-05 15:32:00,
2013-03-05 09:42:00,30.0,17.0,29.93,NE,45,1.0,2.0,58,-99.99,,,-99.99,,2013-03-05 15:42:00,
2013-03-05 09:52:00,30.0,17.0,29.93,North,0,1.0,2.0,58,-99.99,,,-99.99,,2013-03-05 15:52:00,
2013-03-05 10:01:00,30.0,17.0,29.93,North,0,1.0,2.0,58,-99.99,,,-99.99,,2013-03-05 16:01:00,
2013-03-05 10:11:00,30.0,17.0,29.93,North,0,1.0,2.0,58,-99.99,,,-99.99,,2013-03-05 16:11:00,
2013-03-05 10:21:00,30.0,17.0,29.92,NNE,27,2.0,2.0,58,-99.99,,,-99.99,,2013-03-05 16:21:00,
2013-03-05 10:32:00,30.0,17.0,29.92,NNE,27,2.0,2.0,58,-99.99,,,-99.99,,2013-03-05 16:32:00,
2013-03-05 10:42:00,30.0,17.0,29.92,NNE,27,2.0,2.0,58,-99.99,,,-99.99,,2013-03-05 16:42:00,
2013-03-05 10:52:00,30.0,17.0,29.91,NNE,27,2.0,3.0,57,-99.99,,,-99.99,,2013-03-05 16:52:00,
2013-03-05 11:01:00,30.0,17.0,29.91,NNE,27,2.0,3.0,57,-99.99,,,-99.99,,2013-03-05 17:01:00,
2013-03-05 11:11:00,30.0,17.0,29.91,NNE,27,2.0,3.0,57,-99.99,,,-99.99,,2013-03-05 17:11:00,
2013-03-05 11:21:00,30.0,17.0,29.91,ENE,72,3.0,5.0,58,-99.99,,,-99.99,,2013-03-05 17:21:00,
2013-03-05 11:32:00,30.0,17.0,29.91,ENE,72,3.0,5.0,58,-99.99,,,-99.99,,2013-03-05 17:32:00,
2013-03-05 11:42:00,30.0,17.0,29.91,ENE,72,3.0,5.0,58,-99.99,,,-99.99,,2013-03-05 17:42:00,
2013-03-05 11:52:00,31.0,18.0,29.89,NE,45,1.0,4.0,57,-99.99,,,-99.99,,2013-03-05 17:52:00,
2013-03-05 12:02:00,31.0,18.0,29.89,NE,45,1.0,4.0,57,-99.99,,,-99.99,,2013-03-05 18:02:00,
2013-03-05 12:11:00,31.0,18.0,29.89,NE,45,1.0,4.0,57,-99.99,,,-99.99,,2013-03-05 18:11:00,
2013-03-05 12:21:00,32.0,18.0,29.90,NNE,22,1.0,3.0,56,-99.99,,,-99.99,,2013-03-05 18:21:00,
2013-03-05 12:32:00,32.0,18.0,29.90,NNE,22,1.0,3.0,56,-99.99,,,-99.99,,2013-03-05 18:32:00,
2013-03-05 12:42:00,32.0,18.0,29.90,NNE,22,1.0,3.0,56,-99.99,,,-99.99,,2013-03-05 18:42:00,
2013-03-05 12:53:00,32.0,19.0,29.88,NNE,22,3.0,5.0,57,-99.99,,,-99.99,,2013-03-05 18:53:00,
2013-03-05 13:01:00,32.0,19.0,29.87,NE,40,1.0,3.0,58,-99.99,,,-99.99,,2013-03-05 19:01:00,
2013-03-05 13:11:00,32.0,19.0,29.87,NE,40,1.0,3.0,58,-99.99,,,-99.99,,2013-03-05 19:11:00,
2013-03-05 13:21:00,32.0,19.0,29.87,NE,40,1.0,3.0,58,-99.99,,,-99.99,,2013-03-05 19:21:00,
2013-03-05 13:32:00,32.0,19.0,29.86,NE,45,1.0,4.0,59,-99.99,,,-99.99,,2013-03-05 19:32:00,
2013-03-05 13:42:00,32.0,19.0,29.86,NE,45,1.0,4.0,59,-99.99,,,-99.99,,2013-03-05 19:42:00,
2013-03-05 13:52:00,32.0,19.0,29.87,NNE,13,2.0,3.0,58,-99.99,,,-99.99,,2013-03-05 19:52:00,
2013-03-05 14:01:00,32.0,20.0,29.87,NE,45,1.0,4.0,60,-99.99,,,-99.99,,2013-03-05 20:01:00,
2013-03-05 14:11:00,32.0,20.0,29.87,NE,45,2.0,2.0,60,-99.99,,,-99.99,,2013-03-05 20:11:00,
2013-03-05 14:21:00,32.0,20.0,29.87,NE,45,2.0,2.0,60,-99.99,,,-99.99,,2013-03-05 20:21:00,
2013-03-05 14:32:00,32.0,20.0,29.88,East,90,3.0,5.0,61,-99.99,,,-99.99,,2013-03-05 20:32:00,
2013-03-05 14:41:00,32.0,20.0,29.88,East,90,3.0,5.0,61,-99.99,,,-99.99,,2013-03-05 20:41:00,
2013-03-05 14:52:00,31.0,19.0,29.89,NE,54,2.0,3.0,60,-99.99,,,-99.99,,2013-03-05 20:52:00,
2013-03-05 15:01:00,31.0,19.0,29.89,NE,54,2.0,3.0,60,-99.99,,,-99.99,,2013-03-05 21:01:00,
2013-03-05 15:11:00,31.0,19.0,29.89,NE,54,2.0,3.0,60,-99.99,,,-99.99,,2013-03-05 21:11:00,
2013-03-05 15:21:00,31.0,21.0,29.89,North,0,1.0,1.0,65,-99.99,,,-99.99,,2013-03-05 21:21:00,
2013-03-05 15:31:00,31.0,21.0,29.89,North,0,1.0,1.0,65,-99.99,,,-99.99,,2013-03-05 21:31:00,
2013-03-05 15:42:00,31.0,21.0,29.89,North,0,1.0,1.0,65,-99.99,,,-99.99,,2013-03-05 21:42:00,
2013-03-05 15:52:00,31.0,22.0,29.90,NE,45,0.0,1.0,69,-99.99,,,-99.99,,2013-03-05 21:52:00,
2013-03-05 16:01:00,31.0,22.0,29.90,NE,45,0.0,1.0,69,-99.99,,,-99.99,,2013-03-05 22:01:00,
2013-03-05 16:11:00,31.0,22.0,29.90,NE,45,0.0,1.0,69,-99.99,,,-99.99,,2013-03-05 22:11:00,
2013-03-05 16:32:00,30.0,22.0,29.91,North,0,1.0,2.0,73,-99.99,,,-99.99,,2013-03-05 22:32:00,
2013-03-05 16:42:00,30.0,22.0,29.91,North,0,1.0,2.0,73,-99.99,,,-99.99,,2013-03-05 22:42:00,
2013-03-05 16:52:00,30.0,22.0,29.92,North,0,0.0,2.0,73,-99.99,,,-99.99,,2013-03-05 22:52:00,
2013-03-05 17:01:00,29.0,22.0,29.92,North,0,1.0,2.0,74,-99.99,,,-99.99,,2013-03-05 23:01:00,
2013-03-05 17:11:00,29.0,22.0,29.92,North,0,1.0,2.0,74,-99.99,,,-99.99,,2013-03-05 23:11:00,
2013-03-05 17:21:00,30.0,23.0,29.93,North,0,0.0,1.0,76,-99.99,,,-99.99,,2013-03-05 23:21:00,
2013-03-05 17:32:00,29.0,22.0,29.93,North,0,0.0,0.0,75,-99.99,,,-99.99,,2013-03-05 23:32:00,
2013-03-05 17:41:00,29.0,22.0,29.93,North,0,0.0,0.0,75,-99.99,,,-99.99,,2013-03-05 23:41:00,
2013-03-05 17:52:00,29.0,22.0,29.94,North,351,1.0,2.0,75,-99.99,,,-99.99,,2013-03-05 23:52:00,
2013-03-05 18:01:00,29.0,22.0,29.94,North,351,1.0,2.0,75,-99.99,,,-99.99,,2013-03-06 00:01:00,
2013-03-05 18:11:00,29.0,22.0,29.94,North,351,1.0,2.0,75,-99.99,,,-99.99,,2013-03-06 00:11:00,
2013-03-05 18:21:00,29.0,22.0,29.96,North,0,1.0,1.0,75,-99.99,,,-99.99,,2013-03-06 00:21:00,
2013-03-05 18:32:00,29.0,22.0,29.96,North,0,0.0,0.0,75,-99.99,,,-99.99,,2013-03-06 00:32:00,
2013-03-05 18:42:00,29.0,22.0,29.96,North,0,0.0,0.0,75,-99.99,,,-99.99,,2013-03-06 00:42:00,
2013-03-05 18:52:00,29.0,22.0,29.96,North,0,0.0,0.0,75,-99.99,,,-99.99,,2013-03-06 00:52:00,
2013-03-05 19:02:00,29.0,22.0,29.96,North,0,0.0,0.0,75,-99.99,,,-99.99,,2013-03-06 01:02:00,
2013-03-05 19:52:00,29.0,21.0,29.97,North,353,0.0,2.0,73,-99.99,,,-99.99,,2013-03-06 01:52:00,
2013-03-05 20:01:00,29.0,21.0,29.97,North,353,0.0,2.0,73,-99.99,,,-99.99,,2013-03-06 02:01:00,
2013-03-05 20:11:00,29.0,21.0,29.97,North,353,0.0,2.0,73,-99.99,,,-99.99,,2013-03-06 02:11:00,
2013-03-05 20:22:00,29.0,21.0,29.98,North,0,0.0,0.0,72,-99.99,,,-99.99,,2013-03-06 02:22:00,
2013-03-05 20:32:00,29.0,21.0,29.98,North,0,0.0,0.0,72,-99.99,,,-99.99,,2013-03-06 02:32:00,
2013-03-05 20:42:00,29.0,21.0,29.98,North,0,0.0,0.0,72,-99.99,,,-99.99,,2013-03-06 02:42:00,
2013-03-05 20:52:00,29.0,20.0,29.98,NE,45,0.0,0.0,70,-99.99,,,-99.99,,2013-03-06 02:52:00,
2013-03-05 21:01:00,29.0,20.0,29.98,NE,45,0.0,0.0,70,-99.99,,,-99.99,,2013-03-06 03:01:00,
2013-03-05 21:11:00,29.0,20.0,29.98,NE,45,0.0,0.0,70,-99.99,,,-99.99,,2013-03-06 03:11:00,
2013-03-05 21:22:00,29.0,20.0,29.98,North,0,0.0,1.0,70,-99.99,,,-99.99,,2013-03-06 03:22:00,
2013-03-05 21:32:00,29.0,20.0,29.98,North,0,0.0,1.0,70,-99.99,,,-99.99,,2013-03-06 03:32:00,
2013-03-05 21:42:00,29.0,20.0,29.98,North,0,0.0,1.0,70,-99.99,,,-99.99,,2013-03-06 03:42:00,
2013-03-05 21:51:00,28.0,19.0,30.00,North,0,0.0,0.0,69,-99.99,,,-99.99,,2013-03-06 03:51:00,
2013-03-05 21:52:00,29.0,20.0,29.99,North,0,0.0,0.0,70,-99.99,,,-99.99,,2013-03-06 03:52:00,
2013-03-05 22:02:00,29.0,20.0,29.99,North,0,0.0,0.0,70,-99.99,,,-99.99,,2013-03-06 04:02:00,
2013-03-05 22:11:00,29.0,20.0,29.99,North,0,0.0,0.0,70,-99.99,,,-99.99,,2013-03-06 04:11:00,
2013-03-05 22:21:00,28.0,19.0,30.00,North,0,0.0,0.0,69,-99.99,,,-99.99,,2013-03-06 04:21:00,
2013-03-05 22:32:00,28.0,19.0,30.00,North,0,0.0,0.0,69,-99.99,,,-99.99,,2013-03-06 04:32:00,
2013-03-05 22:42:00,28.0,19.0,30.00,North,0,0.0,0.0,69,-99.99,,,-99.99,,2013-03-06 04:42:00,
2013-03-05 23:12:00,28.0,19.0,30.02,North,0,0.0,0.0,69,-99.99,,,-99.99,,2013-03-06 05:12:00,
2013-03-05 23:23:00,28.0,19.0,30.02,North,0,0.0,0.0,69,-99.99,,,-99.99,,2013-03-06 05:23:00,
2013-03-05 23:32:00,28.0,19.0,30.02,North,0,0.0,0.0,69,-99.99,,,-99.99,,2013-03-06 05:32:00,
2013-03-05 23:42:00,28.0,19.0,30.02,North,0,0.0,0.0,69,-99.99,,,-99.99,,2013-03-06 05:42:00,
2013-03-05 23:52:00,28.0,19.0,30.03,North,0,0.0,1.0,69,-99.99,,,-99.99,,2013-03-06 05:52:00,